Voltar ao catálogo

THORAD DELTA 1 DEB

AtivoSSO
NORAD 42625·DEBRIS·🇺🇸 United States

Lançado Nov 15, 1974 de Vandenberg Space Force Base

Loading…

Próximas Passagens (próximas 24 horas)

TLE

AtualizadoSource: Space-Track

Época: Sep 11, 2026, 21:26 UTC

1 42625U 74089GS  26254.89338522  .00000057  00000-0  72475-3 0  9996
2 42625 102.0449 230.8375 0005248  29.7604 358.0860 12.44295626582776

Acompanhe THORAD DELTA 1 DEB em tempo real com AllMySat

Download on the App Store